Change the Weather History Date:

Saturday, March 16, 2013

  Actual Average Record
Temperature  
Mean Temperature 36 °F -  
Max Temperature 42 °F 44 °F 80 °F (2012)
Min Temperature 30 °F 28 °F 15 °F (1997)
Degree Days  
Heating Degree Days 28    
Moisture  
Dew Point 36 °F    
Average Humidity 94    
Maximum Humidity 100    
Minimum Humidity 82    
Precipitation  
Precipitation 0.00 in - - ()
Sea Level Pressure  
Sea Level Pressure 29.83 in    
Wind  
Wind Speed 9 mph (North)    
Max Wind Speed 14 mph    
Max Gust Speed -    
Visibility 7 miles    
Events Fog    
Averages and records for this station are not official NWS values.
T = Trace of Precipitation, MM = Missing Value Source: NWS Daily Summary

Daily Weather History Graph

Daily Weather History Graph

Search for Another Location

Airport or City:

Trip Planner

Search our weather history database for the weather conditions in past years. The results will help you decide how hot, cold, wet, or windy it might be!

Date:

Astronomy

Mar. 16, 2013 Rise Set
Actual Time 7:54 AM EDT 7:52 PM EDT
Civil Twilight 7:26 AM EDT 8:19 PM EDT
Nautical Twilight 6:55 AM EDT 8:51 PM EDT
Astronomical Twilight 6:22 AM EDT 9:24 PM EDT
Moon 10:21 AM EDT (3/16) 12:06 AM EDT (3/16)
Length of Visible Light 12h 53m
Length of Day
11h 58m
Waxing Crescent, 23% of the Moon is Illuminated
Mar 16
Waxing Crescent
Mar 19
First Quarter
Mar 27
Full
Apr 3
Last Quarter
Apr 10
New

Hourly Weather History & Observations

Time (EDT) Temp. Windchill Dew Point Humidity Pressure Visibility Wind Dir Wind Speed Gust Speed Precip Events Conditions
12:55 AM 41.5 °F 36.4 °F 40.5 °F 96% 29.71 in 10.0 mi ESE 8.1 mph - N/A   Overcast
1:55 AM 41.7 °F 36.7 °F 40.1 °F 94% 29.68 in 10.0 mi ESE 8.1 mph - N/A   Partly Cloudy
2:55 AM 42.3 °F 38.6 °F 39.7 °F 91% 29.67 in 10.0 mi East 5.8 mph - N/A   Overcast
3:55 AM 40.6 °F 35.4 °F 40.1 °F 98% 29.65 in 10.0 mi NE 8.1 mph - N/A   Partly Cloudy
4:01 AM 41.0 °F 35.8 °F 39.2 °F 93% 29.65 in 9.0 mi NE 8.1 mph - N/A   Partly Cloudy
4:55 AM 39.0 °F 33.4 °F 39.0 °F 100% 29.63 in 7.0 mi ENE 8.1 mph - N/A   Mostly Cloudy
5:55 AM 38.7 °F 33.6 °F 38.7 °F 100% 29.63 in 6.0 mi East 6.9 mph - N/A   Scattered Clouds
6:55 AM 37.9 °F 32.7 °F 37.9 °F 100% 29.65 in 4.0 mi NNE 6.9 mph - N/A   Overcast
7:31 AM 39.2 °F 34.2 °F 39.2 °F 100% 29.68 in 3.0 mi North 6.9 mph - N/A   Mostly Cloudy
7:49 AM 39.2 °F 34.2 °F 39.2 °F 100% 29.67 in - NE 6.9 mph - N/A   Overcast
7:55 AM 38.8 °F 32.6 °F 38.8 °F 100% 29.67 in 1.2 mi NE 9.2 mph - N/A   Overcast
8:55 AM 39.6 °F 33.0 °F 39.6 °F 100% 29.70 in 0.8 mi NE 10.4 mph - N/A   Mist
9:55 AM 39.4 °F 33.8 °F 39.4 °F 100% 29.72 in 0.5 mi NNE 8.1 mph - N/A Fog Fog
10:30 AM 39.2 °F 34.2 °F 39.2 °F 100% 29.71 in 0.2 mi North 6.9 mph - N/A Fog Fog
10:55 AM 39.2 °F 32.5 °F 39.2 °F 100% 29.76 in 0.2 mi NNW 10.4 mph - N/A Fog Fog
11:55 AM 39.4 °F 32.3 °F 39.4 °F 100% 29.80 in 0.8 mi NW 11.5 mph - N/A   Mist
12:55 PM 38.8 °F 30.8 °F 38.8 °F 100% 29.83 in 0.8 mi NNW 13.8 mph - N/A   Mist
1:55 PM 38.3 °F 30.1 °F 39.2 °F 100% 29.94 in 2.0 mi NW 13.8 mph - N/A   Mist
2:55 PM 37.4 °F 28.9 °F 37.4 °F 100% 29.89 in 7.0 mi WNW 13.8 mph - N/A   Overcast
3:55 PM 37.4 °F 28.9 °F 34.2 °F 88% 29.92 in 10.0 mi NW 13.8 mph - N/A   Overcast
4:55 PM 36.3 °F 28.0 °F 32.4 °F 86% 29.95 in 10.0 mi NNW 12.7 mph - N/A   Overcast
5:25 PM 35.6 °F 27.1 °F 32.0 °F 87% 29.96 in 10.0 mi North 12.7 mph - N/A   Overcast
5:55 PM 35.4 °F 28.4 °F 32.2 °F 88% 29.98 in 10.0 mi North 9.2 mph - N/A   Overcast
6:55 PM 34.9 °F 29.0 °F 30.0 °F 82% 30.00 in 10.0 mi North 6.9 mph - N/A   Overcast
7:55 PM 34.2 °F 29.0 °F 29.5 °F 83% 30.01 in 10.0 mi North 5.8 mph - N/A   Overcast
8:55 PM 32.9 °F 25.3 °F 28.4 °F 84% 30.02 in 10.0 mi NNW 9.2 mph - N/A   Overcast
9:55 PM 32.5 °F 27.1 °F 27.9 °F 83% 30.06 in 10.0 mi NNW 5.8 mph - N/A   Overcast
10:34 PM 32.0 °F 24.2 °F 28.4 °F 87% 30.08 in 10.0 mi NW 9.2 mph - N/A   Overcast
10:55 PM 31.8 °F 25.4 °F 27.5 °F 84% 30.09 in 10.0 mi NW 6.9 mph - N/A   Overcast
11:55 PM 30.9 °F 23.5 °F 26.8 °F 85% 30.08 in 10.0 mi NNW 8.1 mph - N/A   Overcast